Weather History for KI35 - September, 2013

Change the Weather History Date:

Tuesday, September 17, 2013

  Actual Average (KLOZ) Record (KLOZ)
Temperature  
Mean Temperature 66 °F 68 °F  
Max Temperature 77 °F 79 °F 92 °F (1955)
Min Temperature 55 °F 57 °F 38 °F (2000)
Degree Days  
Heating Degree Days 0 1  
Month to date heating degree days 7  
Since 1 July heating degree days 8  
Cooling Degree Days 1 4  
Month to date cooling degree days 105  
Year to date cooling degree days 1129  
Growing Degree Days 16 (Base 50)    
Moisture  
Dew Point 57 °F    
Average Humidity 78    
Maximum Humidity 100    
Minimum Humidity 53    
Precipitation  
Precipitation 0.00 in 0.12 in 4.32 in (2004)
Month to date precipitation 1.91  
Year to date precipitation 34.59  
Sea Level Pressure  
Sea Level Pressure 30.24 in    
Wind  
Wind Speed 3 mph (ENE)    
Max Wind Speed 9 mph    
Max Gust Speed 16 mph    
Visibility 7 miles    
Events      
T = Trace of Precipitation, MM = Missing Value Source: NWS Daily Summary

Daily Weather History Graph

Daily Weather History Graph

Search for Another Location

Airport or City:

Trip Planner

Search our weather history database for the weather conditions in past years. The results will help you decide how hot, cold, wet, or windy it might be!

Date:

Astronomy

Sep. 17, 2013 Rise Set
Actual Time 7:17 AM EDT 7:37 PM EDT
Civil Twilight 6:51 AM EDT 8:03 PM EDT
Nautical Twilight 6:21 AM EDT 8:33 PM EDT
Astronomical Twilight 5:50 AM EDT 9:04 PM EDT
Moon 6:22 PM EDT (9/17) 5:12 AM EDT (9/17)
Length of Visible Light 13h 11m
Length of Day
12h 20m
Waxing Gibbous, 96% of the Moon is Illuminated
Sep 17
Waxing Gibbous
Sep 19
Full
Sep 26
Last Quarter
Oct 4
New
Oct 11
First Quarter

Hourly Weather History & Observations

Time (EDT) Temp. Dew Point Humidity Pressure Visibility Wind Dir Wind Speed Gust Speed Precip Events Conditions
12:15 AM 59.0 °F 59.0 °F 100% 30.25 in 4.0 mi Calm Calm - N/A   Clear
12:35 AM 59.0 °F 57.2 °F 94% 30.25 in 3.0 mi ENE 3.5 mph - N/A   Clear
12:55 AM 59.0 °F 57.2 °F 94% 30.25 in 2.0 mi Calm Calm - N/A   Scattered Clouds
1:15 AM 59.0 °F 57.2 °F 94% 30.25 in 0.5 mi Calm Calm - N/A   Overcast
1:35 AM 59.0 °F 57.2 °F 94% 30.25 in 0.8 mi ENE 3.5 mph - N/A   Overcast
1:55 AM 59.0 °F 57.2 °F 94% 30.25 in 1.0 mi Calm Calm - N/A   Overcast
2:15 AM 57.2 °F 55.4 °F 94% 30.25 in 0.5 mi Calm Calm - N/A   Overcast
2:35 AM 57.2 °F 55.4 °F 94% 30.25 in 0.8 mi Calm Calm - N/A   Overcast
2:55 AM 55.4 °F 55.4 °F 100% 30.25 in 1.5 mi ESE 6.9 mph - N/A   Overcast
3:15 AM 55.4 °F 55.4 °F 100% 30.25 in 1.0 mi East 5.8 mph - N/A   Overcast
3:35 AM 55.4 °F 55.4 °F 100% 30.25 in 2.0 mi East 8.1 mph - N/A   Mostly Cloudy
3:55 AM 55.4 °F 55.4 °F 100% 30.24 in 1.8 mi East 3.5 mph - N/A   Mostly Cloudy
4:15 AM 55.4 °F 53.6 °F 94% 30.25 in 2.0 mi East 5.8 mph - N/A   Mostly Cloudy
4:35 AM 55.4 °F 53.6 °F 94% 30.25 in 2.0 mi ENE 3.5 mph - N/A   Overcast
4:55 AM 55.4 °F 53.6 °F 94% 30.25 in 2.5 mi ENE 4.6 mph - N/A   Overcast
5:15 AM 55.4 °F 53.6 °F 94% 30.25 in 2.5 mi ENE 4.6 mph - N/A   Overcast
5:35 AM 55.4 °F 53.6 °F 94% 30.25 in 4.0 mi ENE 4.6 mph - N/A   Overcast
5:55 AM 55.4 °F 53.6 °F 94% 30.25 in 4.0 mi ENE 4.6 mph - N/A   Overcast
6:15 AM 55.4 °F 53.6 °F 94% 30.26 in 5.0 mi ENE 4.6 mph - N/A   Overcast
6:35 AM 55.4 °F 53.6 °F 94% 30.26 in 5.0 mi NE 4.6 mph - N/A   Overcast
6:55 AM 55.4 °F 53.6 °F 94% 30.26 in 5.0 mi NE 4.6 mph - N/A   Overcast
7:15 AM 55.4 °F 53.6 °F 94% 30.27 in 5.0 mi NE 4.6 mph - N/A   Overcast
7:35 AM 55.4 °F 53.6 °F 94% 30.27 in 4.0 mi ENE 3.5 mph - N/A   Overcast
7:55 AM 55.4 °F 53.6 °F 94% 30.27 in 5.0 mi ENE 4.6 mph - N/A   Overcast
8:15 AM 55.4 °F 53.6 °F 94% 30.27 in 5.0 mi ENE 3.5 mph - N/A   Overcast
8:35 AM 55.4 °F 53.6 °F 94% 30.28 in 7.0 mi East 6.9 mph - N/A   Overcast
8:55 AM 55.4 °F 53.6 °F 94% 30.28 in 7.0 mi East 9.2 mph - N/A   Overcast
9:15 AM 57.2 °F 53.6 °F 88% 30.28 in 7.0 mi Calm Calm - N/A   Overcast
9:35 AM 59.0 °F 53.6 °F 82% 30.28 in 10.0 mi NE 5.8 mph - N/A   Overcast
9:55 AM 59.0 °F 53.6 °F 82% 30.28 in 10.0 mi NE 5.8 mph - N/A   Mostly Cloudy
10:15 AM 62.6 °F 55.4 °F 77% 30.28 in 10.0 mi Calm Calm - N/A   Scattered Clouds
10:35 AM 64.4 °F 55.4 °F 73% 30.28 in 10.0 mi Calm Calm - N/A   Clear
10:55 AM 68.0 °F 55.4 °F 64% 30.28 in 10.0 mi Calm Calm - N/A   Clear
11:15 AM 68.0 °F 55.4 °F 64% 30.28 in 10.0 mi NNE 4.6 mph - N/A   Scattered Clouds
11:35 AM 69.8 °F 55.4 °F 60% 30.28 in 10.0 mi ENE 5.8 mph - N/A   Clear
11:55 AM 69.8 °F 55.4 °F 60% 30.27 in 10.0 mi ESE 3.5 mph - N/A   Scattered Clouds
12:15 PM 71.6 °F 55.4 °F 57% 30.27 in 10.0 mi ENE 3.5 mph - N/A   Mostly Cloudy
12:35 PM 73.4 °F 57.2 °F 57% 30.26 in 10.0 mi Calm Calm - N/A   Overcast
12:55 PM 73.4 °F 59.0 °F 61% 30.26 in 10.0 mi ENE 3.5 mph - N/A   Mostly Cloudy
1:15 PM 73.4 °F 57.2 °F 57% 30.25 in 10.0 mi Calm Calm - N/A   Mostly Cloudy
1:35 PM 77.0 °F 59.0 °F 54% 30.24 in 10.0 mi NE 4.6 mph - N/A   Mostly Cloudy
1:55 PM 75.2 °F 57.2 °F 53% 30.23 in 10.0 mi ENE 3.5 mph - N/A   Mostly Cloudy
2:15 PM 75.2 °F 59.0 °F 57% 30.23 in 10.0 mi East 4.6 mph - N/A   Mostly Cloudy
2:35 PM 73.4 °F 57.2 °F 57% 30.22 in 10.0 mi ENE 5.8 mph - N/A   Overcast
2:55 PM 73.4 °F 59.0 °F 61% 30.22 in 10.0 mi East 4.6 mph - N/A   Mostly Cloudy
3:15 PM 77.0 °F 59.0 °F 54% 30.21 in 10.0 mi East 4.6 mph - N/A   Scattered Clouds
3:35 PM 75.2 °F 59.0 °F 57% 30.21 in 10.0 mi East 4.6 mph - N/A   Mostly Cloudy
3:55 PM 75.2 °F 59.0 °F 57% 30.20 in 10.0 mi East 3.5 mph - N/A   Mostly Cloudy
4:15 PM 73.4 °F 59.0 °F 61% 30.20 in 10.0 mi East 3.5 mph - N/A   Mostly Cloudy
4:35 PM 75.2 °F 59.0 °F 57% 30.19 in 10.0 mi Calm Calm - N/A   Scattered Clouds
4:55 PM 77.0 °F 59.0 °F 54% 30.19 in 10.0 mi Calm Calm - N/A   Clear
5:15 PM 77.0 °F 59.0 °F 54% 30.19 in 10.0 mi South 3.5 mph - N/A   Clear
5:35 PM 73.4 °F 59.0 °F 61% 30.18 in 10.0 mi South 5.8 mph - N/A   Clear
5:55 PM 73.4 °F 59.0 °F 61% 30.18 in 10.0 mi South 3.5 mph - N/A   Scattered Clouds
6:15 PM 71.6 °F 60.8 °F 69% 30.19 in 10.0 mi NE 4.6 mph - N/A   Scattered Clouds
6:35 PM 71.6 °F 60.8 °F 69% 30.19 in 10.0 mi North - - N/A   Mostly Cloudy
6:55 PM 69.8 °F 62.6 °F 78% 30.18 in 10.0 mi Calm Calm - N/A   Overcast
7:15 PM 68.0 °F 62.6 °F 83% 30.18 in 10.0 mi Calm Calm - N/A   Scattered Clouds
7:35 PM 68.0 °F 62.6 °F 83% 30.18 in 10.0 mi NNE 3.5 mph - N/A   Clear
7:55 PM 66.2 °F 62.6 °F 88% 30.18 in 10.0 mi Calm Calm - N/A   Clear
8:15 PM 64.4 °F 62.6 °F 94% 30.19 in 10.0 mi Calm Calm - N/A   Scattered Clouds
8:35 PM 64.4 °F 62.6 °F 94% 30.19 in 10.0 mi Calm Calm - N/A   Mostly Cloudy
8:55 PM 64.4 °F 62.6 °F 94% 30.19 in 7.0 mi Calm Calm - N/A   Scattered Clouds
9:15 PM 64.4 °F 60.8 °F 88% 30.20 in 7.0 mi Calm Calm - N/A   Mostly Cloudy
9:35 PM 66.2 °F 59.0 °F 78% 30.20 in 10.0 mi East 4.6 mph - N/A   Mostly Cloudy
9:55 PM 68.0 °F 57.2 °F 68% 30.21 in 10.0 mi East 4.6 mph - N/A   Mostly Cloudy
10:15 PM 68.0 °F 55.4 °F 64% 30.22 in 10.0 mi SE 5.8 mph - N/A   Overcast
10:35 PM 66.2 °F 55.4 °F 68% 30.22 in 10.0 mi ENE 3.5 mph - N/A   Mostly Cloudy
10:55 PM 66.2 °F 55.4 °F 68% 30.23 in 10.0 mi East 4.6 mph - N/A   Mostly Cloudy
11:15 PM 66.2 °F 55.4 °F 68% 30.23 in 10.0 mi East 6.9 mph - N/A   Overcast
11:35 PM 64.4 °F 53.6 °F 68% 30.23 in 10.0 mi East 8.1 mph 16.1 mph N/A   Mostly Cloudy
11:55 PM 64.4 °F 53.6 °F 68% 30.23 in 10.0 mi East 5.8 mph - N/A   Mostly Cloudy